Dallas/Ft Worth, TX

8:31 AM CDT on October 21, 2019 (GMT -0500)
Dallas-Fort Worth International

Weather History for KDFW - September, 2019

Change the Weather History Date:

Tuesday, September 17, 2019

  Actual Average Record
Temperature  
Mean Temperature 84 °F 77 °F  
Max Temperature 93 °F 88 °F 99 °F (1997)
Min Temperature 74 °F 67 °F 44 °F (1903)
Degree Days  
Heating Degree Days 0 0  
Month to date heating degree days 0 0  
Since 1 July heating degree days 0 0  
Cooling Degree Days 19 13  
Month to date cooling degree days 360 261  
Year to date cooling degree days 2562 2443  
Growing Degree Days 34 (Base 50)    
Moisture  
Dew Point 67 °F    
Average Humidity 58    
Maximum Humidity 79    
Minimum Humidity 42    
Precipitation  
Precipitation 0.00 in 0.07 in 1.76 in (1908)
Month to date precipitation 0.00 1.55  
Year to date precipitation 27.13 25.66  
Sea Level Pressure  
Sea Level Pressure 29.92 in    
Wind  
Wind Speed 6 mph ()    
Max Wind Speed 18 mph    
Max Gust Speed 21 mph    
Visibility 10.0 miles    
Events      
T = Trace of Precipitation, MM = Missing Value Source: Averaged Metar Reports

Daily Weather History Graph

Daily Weather History Graph

Search for Another Location

Airport or City:

Astronomy

Sep. 17, 2019 Rise Set
Actual Time 7:12 AM CDT 7:31 PM CDT
Civil Twilight 6:48 AM CDT 7:56 PM CDT
Nautical Twilight 6:19 AM CDT 8:25 PM CDT
Astronomical Twilight 5:49 AM CDT 8:54 PM CDT
Moon 9:45 PM CDT (9/17) 10:10 AM CDT (9/17)
Length of Visible Light 13h 08m
Length of Day
12h 18m
Waning Gibbous, 89% of the Moon is Illuminated
Sep 17
Waning Gibbous
Sep 21
Last Quarter
Sep 28
New
Oct 5
First Quarter
Oct 13
Full

Hourly Weather History & Observations

Time (CDT) Temp. Heat Index Dew Point Humidity Pressure Visibility Wind Dir Wind Speed Gust Speed Precip Events Conditions
12:53 AM 81.0 °F 83.0 °F 66.0 °F 60% 29.92 in 10.0 mi SE 5.8 mph - N/A   Clear
1:53 AM 80.1 °F 82.1 °F 66.0 °F 62% 29.93 in 10.0 mi South 6.9 mph - N/A   Clear
2:53 AM 79.0 °F - 66.0 °F 64% 29.94 in 10.0 mi SSE 3.5 mph - N/A   Clear
3:53 AM 77.0 °F - 66.0 °F 69% 29.93 in 10.0 mi SSE 4.6 mph - N/A   Partly Cloudy
4:53 AM 75.9 °F - 66.0 °F 71% 29.93 in 10.0 mi SSE 4.6 mph - N/A   Partly Cloudy
5:53 AM 75.0 °F - 66.0 °F 73% 29.94 in 10.0 mi Calm Calm - N/A   Clear
6:53 AM 75.0 °F - 66.9 °F 76% 29.95 in 10.0 mi East 3.5 mph - N/A   Clear
7:53 AM 75.9 °F - 68.0 °F 76% 29.96 in 10.0 mi East 3.5 mph - N/A   Partly Cloudy
8:53 AM 81.0 °F 83.8 °F 68.0 °F 65% 29.96 in 10.0 mi Variable 3.5 mph - N/A   Partly Cloudy
9:53 AM 82.9 °F 86.5 °F 69.1 °F 63% 29.97 in 10.0 mi ESE 8.1 mph - N/A   Partly Cloudy
10:53 AM 86.0 °F 90.1 °F 69.1 °F 57% 29.97 in 10.0 mi East 8.1 mph - N/A   Partly Cloudy
11:53 AM 88.0 °F 91.4 °F 68.0 °F 51% 29.96 in 10.0 mi SE 8.1 mph - N/A   Partly Cloudy
12:53 PM 91.0 °F 94.3 °F 66.9 °F 45% 29.94 in 10.0 mi SE 10.4 mph - N/A   Partly Cloudy
1:53 PM 91.9 °F 95.4 °F 66.9 °F 44% 29.91 in 10.0 mi East 9.2 mph 16.1 mph N/A   Scattered Clouds
2:53 PM 90.0 °F 92.4 °F 66.0 °F 45% 29.89 in 10.0 mi SE 9.2 mph - N/A   Mostly Cloudy
4:07 PM 91.0 °F 94.3 °F 66.9 °F 45% 29.90 in 10.0 mi SE 13.8 mph - N/A   Mostly Cloudy
4:53 PM 91.0 °F 94.3 °F 66.9 °F 45% 29.86 in 10.0 mi ESE 13.8 mph 19.6 mph N/A   Mostly Cloudy
5:53 PM 91.9 °F 94.5 °F 66.0 °F 42% 29.86 in 10.0 mi SE 10.4 mph - N/A   Scattered Clouds
6:53 PM 90.0 °F 92.8 °F 66.9 °F 46% 29.86 in 10.0 mi SE 13.8 mph 19.6 mph N/A   Mostly Cloudy
7:53 PM 86.0 °F 88.8 °F 66.9 °F 53% 29.87 in 10.0 mi SSE 10.4 mph - N/A   Scattered Clouds
8:53 PM 84.0 °F 87.0 °F 68.0 °F 58% 29.89 in 10.0 mi SE 11.5 mph - N/A   Partly Cloudy
9:53 PM 82.9 °F 85.8 °F 68.0 °F 60% 29.90 in 10.0 mi SSE 5.8 mph - N/A   Scattered Clouds
10:53 PM 82.0 °F 84.9 °F 68.0 °F 62% 29.90 in 10.0 mi SSE 8.1 mph - N/A   Partly Cloudy
11:53 PM 80.1 °F 82.7 °F 68.0 °F 67% 29.89 in 10.0 mi SSE 6.9 mph - N/A   Partly Cloudy